Wind_Speed
14 15 15 15 16 16 16 16 17 16 15 13 12 11 9 8 6 5 3 2 3 4 6 8 11 14 16 18 19 20 22 24 27 29 32 35 37 37 37 37 39 41 41
13 14 15 15 15 16 16 16 16 16 16 14 13 12 11 9 8 7 5 4 2 3 5 7 9 11 14 16 17 19 21 23 25 27 29 31 35 37 38 37 39 41 42
12 13 14 14 15 15 16 16 16 16 16 15 13 12 12 10 9 7 6 5 4 3 3 4 6 8 11 13 14 16 18 20 22 25 27 29 32 34 36 37 38 39 40
11 12 13 13 14 15 15 15 16 16 16 15 14 13 12 10 9 8 7 6 5 5 4 4 5 6 7 10 12 14 15 17 19 22 25 27 29 32 33 35 37 38 39
11 11 12 13 13 14 14 15 15 15 15 15 14 13 12 11 10 9 8 7 7 6 5 5 5 5 6 8 9 11 13 15 16 19 22 24 25 28 31 33 35 37 39
10 11 12 12 13 13 14 14 14 14 14 14 14 13 12 11 10 10 9 8 8 7 6 6 6 6 6 7 8 10 12 13 14 15 18 20 23 25 28 30 31 33 35
10 10 11 12 12 13 13 14 14 14 14 14 13 12 12 11 11 10 9 9 8 8 7 7 7 7 7 8 8 9 10 11 12 13 15 17 19 22 25 26 28 30 32
10 10 11 12 12 13 13 14 14 14 14 14 13 12 12 12 11 11 10 9 9 9 8 8 8 7 8 8 8 9 9 10 11 12 13 15 17 19 21 23 25 26 28
10 11 11 12 12 13 13 14 14 14 14 14 14 13 12 12 12 12 11 11 11 10 10 9 9 9 8 8 8 9 9 9 11 12 13 14 15 16 17 18 20 22 23
11 11 12 12 13 13 14 14 14 15 15 15 14 14 13 13 13 13 13 12 12 11 11 10 10 10 10 10 10 9 10 10 10 10 11 11 12 13 15 16 18 19 20
13 13 13 14 14 14 14 15 15 15 15 15 15 15 15 14 14 14 14 13 13 12 12 12 11 11 11 11 11 11 11 11 11 11 11 12 13 13 14 16 17 19 20
15 15 15 15 15 15 15 16 16 16 16 16 16 16 16 15 15 15 15 15 15 14 14 14 14 13 13 13 13 13 13 13 13 13 13 13 14 14 15 16 18 19 21
17 17 16 16 17 17 17 17 17 17 17 17 17 17 17 17 17 17 17 17 17 16 16 16 16 16 16 15 15 15 15 15 15 15 15 15 15 16 16 17 18 19 21
19 19 18 18 18 18 18 18 18 19 19 19 19 19 18 18 18 18 18 18 18 19 19 18 18 18 18 17 17 17 17 17 17 17 18 18 18 18 19 19 19 20 21
22 21 20 20 20 20 20 20 20 20 21 20 20 20 20 20 20 20 20 20 20 20 20 20 20 20 20 20 20 20 20 20 20 20 20 20 20 21 21 22 22 23 24
24 23 23 23 22 22 22 22 22 22 22 22 22 22 22 22 22 22 22 22 22 22 22 22 22 22 22 22 22 22 22 22 22 23 23 23 23 24 24 24 25 26 27
27 26 25 25 25 24 24 24 24 24 24 24 24 24 24 24 24 24 24 25 25 24 24 24 24 24 24 24 24 24 24 25 25 25 26 26 26 27 27 27 27 28 29
29 28 28 27 27 27 27 26 26 26 26 26 26 26 26 26 26 27 27 27 27 26 26 26 26 26 26 26 26 26 27 27 28 28 29 29 29 30 30 31 31 32 32
31 30 30 30 29 29 29 29 29 28 28 28 28 28 28 29 29 29 29 29 28 28 28 28 28 28 29 29 29 30 30 30 31 31 32 32 33 33 34 34 35 36 36
33 33 32 32 32 31 31 31 31 30 30 30 30 30 31 31 31 30 31 30 30 30 30 30 30 30 31 31 32 33 33 33 34 34 35 35 36 37 37 38 39 39 40
35 35 34 34 33 33 33 33 33 33 32 33 33 33 33 33 33 32 32 32 32 32 32 32 33 33 33 34 34 35 35 36 37 37 38 39 40 41 41 42 43 43 44
37 37 36 36 35 35 35 35 35 35 35 34 34 35 35 35 34 34 34 33 33 33 34 34 34 35 35 36 36 37 38 39 39 40 41 42 43 44 45 46 46 47 47
38 38 38 37 37 37 37 37 36 36 36 36 36 36 36 36 36 36 35 35 35 35 35 36 36 36 37 37 38 39 39 40 41 42 43 44 45 46 47 48 48 49 49
40 40 39 39 39 38 38 38 38 38 38 38 38 38 38 38 38 37 37 37 37 37 37 37 37 38 38 39 39 40 41 41 42 43 44 45 46 47 48 48 49 50 51
42 42 41 41 41 40 40 40 40 40 40 40 40 40 39 39 39 38 38 38 38 38 38 38 38 39 39 40 40 41 42 43 43 45 46 47 47 48 49 49 50 51 51
44 43 43 43 42 42 41 41 41 41 41 41 41 41 41 40 40 39 39 39 39 39 39 40 40 40 40 41 41 42 43 44 45 46 47 47 47 48 49 49 50 51 52
Wind_Direction
9 11 13 14 15 17 18 19 20 21 20 19 20 20 20 18 15 9 355 304 263 247 243 240 238 240 242 245 249 251 250 247 243 242 242 240 239 241 241 241 239 241 241
9 12 13 14 14 16 17 17 18 19 21 22 20 21 19 19 18 17 14 5 331 283 260 251 249 250 252 254 256 258 257 253 248 245 244 243 241 241 241 242 241 241 243
8 11 12 13 14 15 16 17 18 19 20 20 19 18 19 21 21 19 15 9 1 342 305 276 261 257 257 257 259 262 262 258 255 251 249 248 245 243 242 243 243 242 243
1 4 7 10 11 12 13 14 15 17 19 19 18 18 17 17 18 17 13 9 1 348 332 310 288 273 268 265 264 263 262 259 258 254 252 250 248 245 244 244 245 245 246
353 357 359 2 4 6 8 9 10 11 13 14 14 15 16 17 16 14 10 7 3 358 350 333 312 298 286 281 277 273 269 266 264 260 256 253 251 248 248 247 248 248 248
345 351 354 356 357 359 1 3 4 6 7 7 9 10 11 10 11 11 7 2 358 353 347 339 330 319 305 298 291 284 277 273 270 268 263 258 254 251 251 249 250 250 251
335 342 347 349 351 353 355 356 357 358 359 0 1 3 5 6 6 4 1 357 354 349 343 338 329 321 317 312 305 297 291 285 278 274 268 263 259 255 252 250 251 252 254
325 332 336 339 343 346 347 349 350 351 352 352 352 352 353 354 354 354 352 350 347 343 339 335 331 323 315 315 313 307 300 292 285 278 272 267 262 259 256 254 255 254 254
314 322 328 332 335 337 339 341 343 343 344 344 345 344 342 342 343 342 341 341 341 339 334 330 328 327 322 316 314 313 309 301 294 287 282 274 267 263 258 257 256 255 255
303 310 318 324 327 330 332 333 335 336 336 335 335 334 333 331 331 331 331 331 331 331 330 327 323 323 321 319 316 315 313 311 306 299 290 283 276 269 263 260 258 256 256
296 301 308 313 318 322 325 327 328 328 328 328 327 326 326 325 324 322 321 320 320 320 321 320 318 316 315 313 311 309 307 305 305 303 296 288 281 274 269 265 261 260 260
289 294 300 305 309 313 316 318 321 322 323 322 321 320 319 318 318 317 315 312 311 310 310 310 310 309 308 307 306 305 303 303 302 301 299 293 287 282 278 273 268 265 264
284 288 293 298 302 305 308 311 314 316 317 317 317 316 315 314 313 311 310 308 306 305 304 304 304 303 302 302 302 301 300 299 298 297 296 295 290 286 283 282 278 274 272
278 283 288 292 296 300 304 306 308 311 312 312 313 312 311 310 309 308 307 305 303 302 301 300 299 299 298 298 298 298 297 297 297 296 295 294 292 288 284 283 281 279 277
274 279 283 288 291 295 299 302 304 306 307 308 309 309 309 308 307 306 306 304 302 301 299 298 296 296 295 295 295 295 295 295 296 296 295 293 292 290 288 284 282 280 278
272 275 279 283 287 291 294 297 300 302 303 304 305 305 306 306 304 303 303 303 301 299 298 296 295 294 293 293 293 294 294 294 294 294 293 293 292 290 289 287 284 282 281
270 273 276 279 283 287 290 293 296 298 300 300 301 302 303 303 302 302 301 300 299 297 296 295 293 293 293 293 293 293 293 294 294 294 293 293 292 291 290 289 287 285 284
268 271 274 277 280 283 287 290 292 294 296 297 298 300 301 301 300 300 300 299 298 296 294 293 293 292 291 291 292 292 292 293 293 293 293 292 292 291 291 290 288 287 286
266 268 271 274 277 281 284 287 289 292 293 294 296 297 298 299 299 298 298 298 296 295 294 292 291 291 290 290 291 291 291 292 292 292 292 292 291 291 290 289 288 287 286
264 267 270 273 276 279 282 284 287 289 291 293 294 296 297 298 298 298 297 296 295 294 293 292 291 290 290 289 290 290 291 292 292 291 291 291 291 291 291 290 289 288 287
263 266 269 271 274 277 280 283 285 288 290 291 293 294 296 297 297 298 297 295 294 293 292 292 291 291 290 290 290 290 291 291 291 291 291 291 292 291 291 291 290 289 288
263 265 268 270 273 276 279 282 284 287 288 290 292 293 294 296 296 297 296 294 293 293 293 293 292 291 291 291 291 291 291 291 291 292 292 292 293 293 292 292 291 290 290
262 264 267 270 273 275 278 280 283 285 287 289 291 292 293 294 295 295 295 293 293 293 293 292 292 292 292 291 291 292 292 292 293 293 293 294 294 294 294 293 293 292 292
261 264 266 269 272 274 277 279 281 284 286 288 290 291 292 293 294 294 294 293 293 293 293 292 293 293 293 292 292 293 293 294 294 294 295 295 295 295 295 294 294 293 293
261 264 266 269 271 273 276 278 280 283 285 287 288 290 291 292 293 293 293 293 293 293 293 293 293 293 294 293 293 294 294 295 296 296 296 296 296 296 295 295 295 294 293
261 263 265 268 270 272 275 277 280 282 284 286 287 289 290 291 291 291 292 292 293 293 293 293 293 293 294 294 294 295 296 296 297 297 298 298 297 297 296 296 296 295 295
Height
5807 5803 5799 5796 5792 5788 5785 5781 5777 5774 5770 5768 5765 5763 5761 5759 5757 5756 5756 5755 5755 5756 5756 5757 5758 5760 5761 5762 5763 5764 5765 5767 5769 5770 5773 5775 5779 5782 5785 5789 5791 5795 5798
5807 5803 5800 5796 5793 5789 5785 5782 5778 5775 5772 5769 5766 5764 5761 5759 5758 5757 5756 5755 5755 5755 5755 5755 5756 5757 5758 5758 5759 5760 5760 5761 5762 5764 5765 5768 5770 5774 5777 5780 5783 5786 5789
5807 5803 5800 5797 5793 5790 5786 5783 5780 5776 5773 5770 5767 5765 5762 5760 5759 5757 5756 5755 5754 5754 5754 5754 5754 5754 5754 5755 5755 5755 5755 5756 5756 5758 5759 5760 5762 5765 5768 5771 5774 5777 5780
5806 5803 5800 5797 5794 5791 5787 5784 5781 5777 5774 5771 5768 5766 5763 5761 5759 5758 5757 5756 5755 5754 5753 5752 5752 5752 5752 5752 5751 5751 5751 5751 5751 5751 5752 5753 5755 5757 5760 5763 5765 5768 5770
5806 5803 5800 5797 5794 5791 5788 5785 5782 5779 5776 5773 5770 5767 5764 5762 5760 5759 5757 5756 5754 5753 5752 5751 5750 5750 5749 5748 5748 5747 5747 5746 5746 5746 5746 5747 5748 5750 5752 5754 5756 5758 5760
5805 5802 5799 5797 5794 5791 5788 5785 5782 5779 5776 5773 5770 5768 5765 5763 5761 5759 5757 5756 5754 5753 5751 5750 5749 5748 5747 5746 5745 5744 5743 5742 5741 5741 5741 5741 5741 5742 5744 5745 5747 5750 5752
5803 5801 5799 5796 5793 5791 5788 5785 5782 5779 5776 5774 5771 5768 5766 5764 5761 5759 5757 5756 5754 5752 5751 5749 5748 5746 5745 5743 5742 5741 5739 5738 5738 5737 5736 5735 5735 5736 5737 5738 5740 5741 5743
5802 5800 5797 5795 5792 5790 5787 5784 5781 5779 5776 5773 5770 5768 5766 5763 5761 5759 5757 5755 5753 5751 5749 5748 5746 5744 5743 5741 5740 5738 5737 5735 5734 5733 5732 5731 5730 5730 5731 5732 5732 5734 5735
5799 5797 5795 5793 5790 5788 5785 5783 5780 5777 5775 5772 5769 5767 5765 5763 5760 5758 5756 5754 5752 5750 5748 5746 5744 5743 5741 5739 5738 5736 5734 5732 5731 5729 5728 5727 5726 5726 5726 5726 5726 5727 5728
5796 5795 5793 5790 5788 5786 5783 5781 5778 5776 5773 5770 5768 5765 5763 5761 5759 5757 5755 5753 5751 5749 5747 5745 5743 5741 5739 5737 5735 5734 5732 5730 5728 5726 5725 5723 5722 5721 5721 5721 5721 5722 5722
5793 5791 5789 5787 5785 5783 5781 5778 5776 5773 5771 5768 5766 5763 5761 5759 5757 5755 5752 5750 5748 5746 5744 5742 5741 5739 5737 5735 5733 5731 5729 5727 5726 5724 5722 5720 5719 5718 5717 5716 5716 5716 5716
5788 5787 5785 5784 5782 5780 5778 5775 5773 5770 5768 5765 5763 5761 5758 5756 5754 5752 5750 5748 5745 5744 5742 5740 5738 5736 5734 5732 5730 5728 5726 5724 5723 5721 5719 5717 5715 5714 5713 5712 5711 5711 5710
5783 5782 5781 5779 5778 5776 5774 5771 5769 5767 5764 5762 5760 5757 5755 5753 5751 5748 5746 5744 5742 5740 5738 5736 5734 5732 5730 5728 5726 5725 5723 5721 5719 5717 5715 5714 5712 5710 5709 5708 5706 5706 5705
5777 5776 5775 5774 5772 5771 5769 5767 5765 5762 5760 5758 5755 5753 5751 5749 5746 5744 5742 5740 5737 5735 5733 5731 5730 5728 5726 5724 5722 5720 5718 5717 5715 5713 5711 5709 5707 5706 5704 5703 5702 5700 5699
5771 5770 5769 5768 5767 5765 5763 5761 5759 5757 5755 5753 5750 5748 5746 5744 5741 5739 5737 5735 5733 5730 5728 5726 5725 5723 5721 5719 5717 5715 5713 5711 5709 5708 5706 5704 5702 5700 5699 5697 5696 5694 5693
5764 5763 5762 5761 5760 5759 5757 5755 5753 5751 5749 5747 5745 5743 5740 5738 5735 5733 5731 5729 5727 5725 5723 5721 5719 5717 5715 5713 5711 5709 5707 5705 5704 5702 5700 5698 5696 5694 5692 5690 5689 5687 5685
5756 5755 5755 5754 5753 5751 5750 5748 5747 5745 5743 5741 5738 5736 5734 5732 5729 5727 5725 5723 5720 5718 5716 5714 5712 5710 5708 5706 5704 5702 5700 5699 5697 5695 5693 5691 5689 5687 5685 5683 5681 5679 5677
5747 5747 5746 5745 5745 5744 5742 5741 5739 5737 5736 5733 5731 5729 5727 5725 5722 5720 5717 5715 5713 5710 5708 5706 5704 5703 5701 5699 5697 5695 5693 5691 5689 5687 5685 5682 5680 5678 5676 5674 5672 5669 5667
5737 5737 5737 5736 5736 5735 5734 5732 5731 5729 5727 5726 5724 5722 5719 5717 5714 5712 5710 5707 5705 5702 5700 5698 5696 5694 5692 5690 5688 5686 5684 5682 5680 5677 5675 5673 5671 5668 5666 5664 5661 5659 5656
5727 5727 5727 5727 5726 5725 5724 5723 5722 5720 5719 5717 5715 5713 5711 5708 5706 5703 5701 5698 5696 5694 5691 5689 5687 5685 5683 5681 5679 5677 5674 5672 5670 5667 5665 5662 5660 5657 5655 5652 5649 5647 5644
5716 5716 5717 5716 5716 5715 5715 5714 5712 5711 5709 5707 5706 5703 5701 5699 5696 5694 5691 5689 5687 5684 5682 5680 5677 5675 5673 5671 5668 5666 5664 5661 5659 5656 5653 5650 5648 5645 5642 5638 5636 5632 5629
5705 5705 5706 5706 5705 5705 5704 5703 5702 5701 5699 5697 5695 5693 5691 5689 5686 5684 5681 5679 5676 5674 5671 5669 5667 5664 5662 5659 5657 5654 5652 5649 5646 5643 5640 5637 5634 5630 5627 5624 5620 5617 5613
5693 5694 5694 5694 5694 5694 5693 5692 5691 5690 5688 5687 5685 5682 5680 5678 5676 5673 5671 5668 5666 5663 5660 5658 5655 5653 5650 5647 5645 5642 5639 5636 5633 5630 5627 5623 5619 5615 5611 5607 5604 5600 5596
5680 5681 5682 5682 5682 5682 5682 5681 5680 5678 5677 5675 5673 5671 5669 5667 5664 5662 5659 5657 5654 5652 5649 5646 5644 5641 5638 5635 5632 5629 5626 5623 5619 5616 5612 5608 5604 5600 5596 5591 5587 5583 5579
5667 5669 5669 5670 5670 5670 5669 5669 5668 5667 5665 5663 5662 5660 5657 5655 5653 5650 5648 5645 5642 5640 5637 5634 5631 5628 5625 5622 5619 5616 5613 5609 5606 5602 5598 5593 5589 5584 5580 5575 5571 5566 5561
5654 5655 5656 5657 5657 5657 5656 5656 5655 5654 5653 5651 5649 5647 5645 5643 5640 5638 5635 5633 5630 5627 5624 5622 5619 5616 5613 5609 5606 5603 5599 5595 5591 5587 5582 5578 5573 5569 5564 5559 5554 5549 5543